Content
SEND FEEDBACK

Daily
Averages
Monthly
Summary
United States of America

LEXINGTON, MISSOURI


Home > North America > United States > Missouri
Elevation: 823 feet     Latitude: 39 12N     Longitude: 093 52W

WEATHER
 
SELECT A DAY
Number of Records: 178,324;   Date Range: 7/18/07 - 11/25/14
 
SHARE

PRINT THIS DATA

[ ← Previous Day ]
WEATHER ALMANAC - JANUARY 31, 2013
[ Next Day → ]
[ °C ]   °F
Weather ElementAverageHighLow
Temperature20.6 °F28.4 °F (10:15 am)10.4 °F (9:55 pm)
Dewpoint10.9 °F21.2 °F (7:35 am)1.4 °F (8:15 pm)
Humidity66.7 %80 % (1:15 am)50 % (2:35 pm)
Barometer30.18 in30.48 in (10:15 pm)29.95 in (4:55 am)
Wind Speed10.4 mph21.9 mph (12:35 pm)
Wind Gust29.9 mph (1:55 pm)
Weather ElementAverage
Visibility10 mi
Wind DirectionW (275.3 °)

Weather ElementTotal
Precipitation---
Heating Degree Days45.6 (Base 65)
Averaged from 66 records on January 31, 2013
WEATHER CONDITIONS BREAKOUT
WIND DIRECTION BREAKOUT
WEATHER BY HOUR - JANUARY 31, 2013
[ °C ]   °F
Local TimeTemperatureDewpointHumidityBarometerVisibilityWind DirectionWind SpeedGust SpeedPrecipitationEventsConditions
12:35 AM23.0 °F15.8 °F74 %29.98 in10.0 miWSW (240°)3.5 mphScattered Clouds
12:55 AM23.0 °F15.8 °F74 %29.98 in10.0 miSSW (200°)3.5 mphClear
1:15 AM23.0 °F17.6 °F80 %29.98 in10.0 miSSW (200°)5.8 mphClear
1:35 AM23.0 °F17.6 °F80 %29.98 in10.0 miSSW (210°)5.8 mphClear
1:55 AM23.0 °F17.6 °F80 %29.98 in10.0 miSSW (210°)4.6 mphScattered Clouds
2:15 AM23.0 °F17.6 °F80 %29.97 in10.0 miSSW (200°)4.6 mphMostly Cloudy
2:35 AM23.0 °F17.6 °F80 %29.98 in10.0 miSSW (200°)8.1 mphMostly Cloudy
2:55 AM24.8 °F19.4 °F80 %29.98 in10.0 miSSW (210°)6.9 mphOvercast
3:15 AM24.8 °F19.4 °F80 %29.98 in10.0 miSW (230°)6.9 mphOvercast
3:35 AM24.8 °F19.4 °F80 %29.97 in10.0 miSW (220°)10.4 mphOvercast
3:55 AM26.6 °F19.4 °F74 %29.97 in10.0 miSW (220°)9.2 mphOvercast
4:15 AM26.6 °F19.4 °F74 %29.97 in10.0 miSW (220°)9.2 mphOvercast
4:35 AM26.6 °F19.4 °F74 %29.96 in10.0 miSW (230°)6.9 mphOvercast
4:55 AM26.6 °F19.4 °F74 %29.95 in10.0 miSSW (200°)6.9 mphOvercast
5:15 AM26.6 °F19.4 °F74 %29.96 in10.0 miSW (230°)6.9 mphOvercast
5:35 AM26.6 °F19.4 °F74 %29.97 in10.0 miWSW (240°)4.6 mphOvercast
5:55 AM26.6 °F19.4 °F74 %29.97 in10.0 miSW (230°)3.5 mphMostly Cloudy
6:15 AM24.8 °F19.4 °F80 %29.97 in10.0 miWSW (240°)4.6 mphScattered Clouds
6:35 AM24.8 °F19.4 °F80 %29.97 in10.0 miSW (220°)5.8 mphScattered Clouds
6:55 AM24.8 °F19.4 °F80 %29.99 in10.0 miWSW (250°)3.5 mphScattered Clouds
7:15 AM24.8 °F19.4 °F80 %30.01 in10.0 miWest (260°)4.6 mphScattered Clouds
7:35 AM26.6 °F21.2 °F80 %30.02 in10.0 miWNW (300°)4.6 mphOvercast
8:15 AM26.6 °F19.4 °F74 %30.05 in10.0 miNW (320°)9.2 mphOvercast
8:35 AM24.8 °F17.6 °F74 %30.06 in10.0 miNW (310°)11.5 mphScattered Clouds
8:55 AM26.6 °F17.6 °F69 %30.07 in10.0 miNW (310°)10.4 mphClear
9:15 AM26.6 °F17.6 °F69 %30.07 in10.0 miWNW (290°)9.2 mphClear
9:35 AM26.6 °F17.6 °F69 %30.08 in10.0 miWNW (300°)10.4 mphClear
9:55 AM26.6 °F15.8 °F64 %30.09 in10.0 miNW (320°)13.8 mphClear
10:15 AM28.4 °F17.6 °F64 %30.10 in10.0 miNW (310°)10.4 mphScattered Clouds
11:15 AM26.6 °F14.0 °F59 %30.13 in10.0 miNW (310°)13.8 mph19.6 mphMostly Cloudy
11:35 AM24.8 °F12.2 °F59 %30.15 in10.0 miNW (310°)16.1 mphMostly Cloudy
11:55 AM24.8 °F12.2 °F59 %30.15 in10.0 miWNW (290°)12.7 mph18.4 mphMostly Cloudy
12:15 PM23.0 °F10.4 °F59 %30.16 in10.0 miNW (310°)16.1 mph21.9 mphMostly Cloudy
12:35 PM23.0 °F8.6 °F54 %30.18 in10.0 miWNW (300°)21.9 mph27.6 mphOvercast
1:15 PM23.0 °F8.6 °F54 %30.19 in10.0 miNW (310°)18.4 mph26.5 mphOvercast
1:35 PM23.0 °F8.6 °F54 %30.20 in10.0 miWNW (300°)17.3 mph23.0 mphOvercast
1:55 PM23.0 °F8.6 °F54 %30.21 in10.0 miNW (310°)20.7 mph29.9 mphScattered Clouds
2:15 PM23.0 °F8.6 °F54 %30.22 in10.0 miWNW (300°)20.7 mph26.5 mphClear
2:35 PM21.2 °F5.0 °F50 %30.23 in10.0 miWNW (300°)21.9 mph29.9 mphClear
2:55 PM21.2 °F5.0 °F50 %30.25 in10.0 miWNW (290°)21.9 mph28.8 mphClear
3:15 PM21.2 °F6.8 °F54 %30.25 in10.0 miWNW (300°)19.6 mph24.2 mphClear
3:35 PM21.2 °F6.8 °F54 %30.25 in10.0 miWNW (300°)17.3 mph24.2 mphClear
3:55 PM19.4 °F5.0 °F54 %30.27 in10.0 miWNW (300°)17.3 mph25.3 mphClear
4:15 PM17.6 °F6.8 °F63 %30.28 in10.0 miNW (320°)12.7 mph20.7 mphScattered Clouds
4:35 PM17.6 °F3.2 °F53 %30.29 in10.0 miNW (310°)16.1 mphClear
4:55 PM17.6 °F3.2 °F53 %30.30 in10.0 miNW (310°)11.5 mph19.6 mphClear
5:15 PM17.6 °F5.0 °F58 %30.31 in10.0 miWNW (300°)12.7 mphClear
5:35 PM15.8 °F3.2 °F58 %30.32 in10.0 miWNW (300°)12.7 mph18.4 mphClear
5:55 PM14.0 °F3.2 °F62 %30.34 in10.0 miNW (310°)15.0 mph21.9 mphClear
6:15 PM14.0 °F3.2 °F62 %30.35 in10.0 miNW (310°)15.0 mph20.7 mphClear
6:35 PM14.0 °F3.2 °F62 %30.36 in10.0 miWNW (300°)11.5 mphClear
6:55 PM14.0 °F3.2 °F62 %30.38 in10.0 miWNW (300°)12.7 mph17.3 mphClear
7:15 PM14.0 °F3.2 °F62 %30.39 in10.0 miWNW (300°)11.5 mphScattered Clouds
7:35 PM12.2 °F3.2 °F67 %30.40 in10.0 miNW (320°)8.1 mphClear
7:55 PM12.2 °F3.2 °F67 %30.40 in10.0 miNW (310°)6.9 mphClear
8:15 PM12.2 °F1.4 °F62 %30.41 in10.0 miWNW (300°)11.5 mph19.6 mphClear
8:35 PM12.2 °F1.4 °F62 %30.42 in10.0 miWNW (300°)11.5 mph16.1 mphClear
8:55 PM12.2 °F1.4 °F62 %30.43 in10.0 miWNW (290°)5.8 mphClear
9:15 PM12.2 °F1.4 °F62 %30.44 in10.0 miWNW (290°)6.9 mphClear
9:35 PM12.2 °F1.4 °F62 %30.45 in10.0 miWest (280°)4.6 mphClear
9:55 PM10.4 °F3.2 °F73 %30.46 in10.0 miWest (260°)6.9 mphClear
10:15 PM12.2 °F1.4 °F62 %30.48 in10.0 miWSW (250°)5.8 mphClear
10:35 PM10.4 °F1.4 °F67 %30.48 in10.0 miWest (270°)5.8 mphClear
10:55 PM10.4 °F1.4 °F67 %30.48 in10.0 miWest (280°)6.9 mphClear
11:35 PM10.4 °F1.4 °F67 %30.45 in10.0 miNW (310°)9.2 mphClear
11:55 PM10.4 °F1.4 °F67 %30.46 in10.0 miWNW (300°)4.6 mphClear
Hourly data recorded from KRCM, located miles away from Lexington, Missouri







STORIES FROM OUR PARTNERS